This demonstration page uses our WeatherBlox Daily Observations layout. Learn more.

36.17497, -115.13722

Hourly Observations for October 28, 2018

Temp ( °F °C ) Dew Point ( °F °C ) Humidity (%) Winds ( mph kmh ) Pressure ( in mb ) Visibility ( mi km ) Precip ( " mm )
12:53 am 00:53 Clear 62 16.7 37 2.8 40 40 NNW 5 7 30.06 1018 10 16.09344 0 0
1:53 am 01:53 Clear 60 15.6 37 2.8 42 42 N 6 9 30.06 1018 10 16.09344 0 0
2:53 am 02:53 Clear 59 15 35 1.7 41 41 NW 6 9 30.06 1018 10 16.09344 0 0
3:53 am 03:53 Clear 59 15 36 2.2 42 42 NW 5 7 30.06 1018 10 16.09344 0 0
4:53 am 04:53 Clear 57 13.9 36 2.2 45 45 NNW 3 6 30.06 1018 10 16.09344 0 0
5:53 am 05:53 Clear 56 13.3 36 2.2 47 47 NW 5 7 30.09 1019 10 16.09344 0 0
6:53 am 06:53 Clear 55 12.8 36 2.2 49 49 NNW 5 7 30.09 1019 10 16.09344 0 0
7:53 am 07:53 Sunny 58 14.4 36 2.2 44 44 N 3 6 30.12 1020 10 16.09344 0 0
8:53 am 08:53 Sunny 63 17.2 37 2.8 38 38 Calm 30.12 1020 10 16.09344 0 0
9:53 am 09:53 Sunny 68 20 34 1.1 28 28 SSE 7 11 30.12 1020 10 16.09344 0 0
10:53 am 10:53 Sunny 71 21.7 34 1.1 26 26 ESE 8 13 30.12 1020 10 16.09344 0 0
11:53 am 11:53 Sunny 74 23.3 34 1.1 23 23 SE 7 11 30.09 1019 10 16.09344 0 0
12:53 pm 12:53 Sunny 77 25 34 1.1 21 21 undefined N/A 30.06 1018 10 16.09344 0 0
1:53 pm 13:53 Sunny 79 26.1 34 1.1 20 20 N 3 6 30.03 1017 10 16.09344 0 0
2:53 pm 14:53 Sunny 79 26.1 33 0.6 19 19 SE 7 11 30 1016 10 16.09344 0 0
3:53 pm 15:53 Sunny 81 27.2 33 0.6 18 18 E 7 11 29.97 1015 10 16.09344 0 0
4:53 pm 16:53 Sunny 80 26.7 34 1.1 19 19 E 5 7 29.97 1015 10 16.09344 0 0
5:53 pm 17:53 Clear 78 25.6 33 0.6 19 19 Calm 29.97 1015 10 16.09344 0 0
6:53 pm 18:53 Clear 74 23.3 36 2.2 25 25 Calm 29.97 1015 10 16.09344 0 0
7:53 pm 19:53 Clear 71 21.7 34 1.1 26 26 N 5 7 29.97 1015 10 16.09344 0 0
8:53 pm 20:53 Clear 67 19.4 38 3.3 35 35 Calm 29.97 1015 10 16.09344 0 0
9:53 pm 21:53 Clear 69 20.6 33 0.6 26 26 Calm 29.97 1015 10 16.09344 0 0
10:53 pm 22:53 Clear 66 18.9 36 2.2 33 33 Calm 29.97 1015 10 16.09344 0 0
11:53 pm 23:53 Clear 64 17.8 35 1.7 34 34 WNW 6 9 29.97 1015 10 16.09344 0 0

Powered by AerisWeather